¡¡¡¡AS14441C1  21Jul99
¡¡¡¡JST  12:55 - 13:08
¡¡                                    99 5D 86 46 96 93 B0 89 C0 C0 C0 BE BD 
¡¡HI HI AE 07 88 55 15 6E FF 0D 00 1D 54 A3 8A 60 94 91 B0 97 C0 C0 C0 BD BD 
¡¡HI HI AE 07 88 55 04 6E FF 0D 00 1D 58 66 7C 61 94 91 B0 8E BF C0 C0 BD BD 
¡¡HI HI AE C7 88 55 09 6E FF 0D 00 1D 8A 65 7E 61 94 91 B0 95 BF C0 C0 BD BD 
¡¡HI HI AE 07 88 55 0E 6E FF 0D 00 1D 3A 74 7F 48 97 92 B0 7E BF C0 C0 BD BD 
¡¡HI HI AE 07 88 55 13 6E FF 0D 00 1D 95 42 6F 52 95 92 A0 81 BF C0 C0 BD BD 
¡¡HI HI AE C7 88 55 19 6E FF 0D 00 1D 2E 6E 8B 60 93 90 B0 78 BF BF BF BD BD 
¡¡HI HI AE C7 88 55 1E 6E FF 0D 00 1D 91 3C 7B 60 94 91 B0 89 BF BF BF BC BD 
¡¡HI HI AE 07 88 55 03 6E FF 0D 00 1D 38 4F 8C 60 96 93 B0 83 BF BF BF BC BD 
¡¡HI HI AE C7 88 55 08 6E 05 0D 00 1D 75 46 87 60 93 91 B0 8C BF BF BF BC BD 
¡¡HI HI AE C7 88 55 0D 6E FF 0D 00 1D 56 2D 7A 4A 22 93 B0 77 BE BF BF BC BD 
¡¡HI HI AE C7 88 55 12 6E 1E 0D 00 1D 60 4C 89 60 93 91 B0 7C BE BF BF BC BD
¡¡HI HI AE C7 88 55 1C 6E FF 0D 00 1D 48 46 8C 43 95 92 B0 6B BE BF BF BC BD 
¡¡HI HI AE C7 88 55 01 6E FF 0D 00 1D 83 20 89 60 94 91 B0 86 BE BE BF BC BD 
¡¡HI HI AE C7 88 55 06 6E 0A 0D 00 1D 46 36 84 60 94 91 B0 85 BE BE BF BC BD 
¡¡HI HI AE C7 88 55 0B 6E FF 0D 00 1D 89 30 82 60 93 90 B0 
¡¡
¡¡¡¡AS14413C1  19Jul99
¡¡¡¡JST  13:00 - 13:12

¡¡HI HI AE C7 88 55 0F 65 FF 0D 00 1D 3F 8E 8E 41 95 92 B0 94 C3 BF C0 C2 BF 
¡¡HI HI AE C7 88 55 14 65 FF 0D 00 1D 93 48 8A 60 95 93 A2 97 C3 BF C0 C2 BF 
¡¡HI HI AE 07 88 55 19 65 FF 0D 00 1D 58 4E 8A 60 94 91 B0 7B C2 BF C0 C2 BF 
¡¡HI HI AE C7 88 55 1F 65 FF 0D 00 1D 5E 3F 8C 42 96 94 B0 77 C2 BF C0 C2 BF 
¡¡HI HI AE 07 88 55 04 65 FF 0D 00 1D 85 79 89 60 94 91 B0 99 C2 BE C0 C1 BF 
¡¡HI HI AE C7 88 51 09 66 FF 0D 00 1D 32 6E 8C 60 93 93 B0 90 C2 BE C0 C1 BF 
¡¡HI HI AE C7 88 55 0F 67 FF 0D 00 1D 8E 39 87 44 96 93 B0 7C C2 BF C0 C1 BF 
¡¡HI HI AE C7 88 51    68 FF 0D 00 1D 40 81 8F 40 95 92 B0 81 C2 BE C0 C1 BF 
¡¡HI HI AE C7 88 51 19 69 FF 0D 00 1D 59 2F 8C 61 95 91 B0 5F C2 BE C0 C1 BF 
¡¡HI HI AE C7 88 51 1F 69 FF 1A 00 1D 6F 58 7D 56 95 92 B0 89 C1 BE C0 C0 BF 
¡¡HI HI AE 07 88 51 04 6A FF 0D 00 1D 30 4B 8F 44 96 94 B0 96 C1 BE C0 C0 BF 
¡¡HI HI AE C7 88 51 09 6B FF 0D 00 1D 7A 26 82 60 93 90 9F 8A C1 BE C0 C0 BF 
¡¡HI HI AE C7 88 51 0E 6C FF 0D 07 1D 32 50 7D 61 94 91 B0 79 C1 BE BF C0 BF 
¡¡HI HI AE C7 88 51 19 6D 1E 0D 00 1D 4C 35 83 60 94 91 B0 8B C1 BE BF BF BF 
¡¡HI HI AE 07 88 55 1E 6D FF 0D 00 1D 4A 21 85 60 93 91 B0 8C C0 BE BF BF BF 
¡¡HI HI AE C7 88 51 03 6E 05 0D 09 1D 5E 1D 71 4E 95 83 B1 7C C0 BE BF BF BF 
¡¡HI HI AE C7 88 51 08 6E FF 0D 00 1D 
¡¡¡¡¡¡¡¡
¡¡£³¡Ë¥Æ¥ì¥á¥È¥ê´¹»»ÃÍÎã¡¡¡¡
¡¡¡¡
¡¡¡¡¾åµ­£Ê£Ä¥Ç¥£¥¸¥¿¥ë¥â¡¼¥É¥Æ¥ì¥á¥È¥ê¤ÎAS14456P¡¡22Jul99¤ÎºÇ½é¤Î
¡¡¥Ö¥í¥Ã¥¯¤Î´¹»»ÃÍÎã
¡¡¡¡
¡¡¥Æ¥ì¥á¥È¥ê   Æâ   ÍÆ	     ¡¡¡¡¡¡¡¡¡¡¡¡¡¡¡¡¡¡´¹»»ÃÍ   ñ °Ì¡¡
¡¡£Æ£±¡¼£±£²	¼§µ¤¥»¥ó¥µ¡¼£Ø¼´	¡á	20098.0	nT
¡¡£Æ£±¡¼£±£³	¼§µ¤¥»¥ó¥µ¡¼£Ú¼´	¡á	50980.4	nT
¡¡£Æ£°¡¼£±£µ	ÂÀÍÛÅÅÃÓȯÀ¸ÅÅή	¡á	 1372.6	mA
¡¡£Æ£°¡¼£±£¶	£Â½¼ÊüÅÅÅÅή	        ¡á	  706.4	mA
¡¡£Æ£°¡¼£±£·	£Âü»ÒÅÅ°µ	        ¡á	   16.1	V
¡¡£Æ£°¡¼£±£¸	£ÂÃæ´Öü»ÒÅÅ°µ	        ¡á	    7.0	V
¡¡£Æ£°¡¼£±£¹	¥Ð¥¹ÅÅ°µ	        ¡á	   15.7	V
¡¡£Æ£°¡¼£²£°	¡Ü5°ÂÄê²½ÅÅ°µ	        ¡á	    5.1	V
¡¡£Æ£°¡¼£²£±	¡¼5£Ö°ÂÄê²½ÅÅ°µ	        ¡á	   -4.8	V
¡¡£Æ£°¡¼£²£²	¡Ü£±£°£Ö°ÂÄê²½ÅÅ°µ	¡á	   10.1	V
¡¡£Æ£°¡¼£²£³	£Ê£Ô£Á½ÐÎÏÅÅÎÏ	        ¡á	  -91.6	£í£×
¡¡£Æ£°¡¼£²£´	£Ê£Ô£Ä½ÐÎÏÅÅÎÏ	        ¡á	 1352.7	£í£×
¡¡£Æ£°¡¼£²£µ	£Â¥»¥ë²¹ÅÙ	        ¡á	    8.5	¡î
¡¡£Æ£°¡¼£²£¶	¹½Âβ¹ÅÙ¡¼£±	        ¡á	    7.3	¡î
¡¡£Æ£°¡¼£²£·	¹½Âβ¹ÅÙ¡¼£²	        ¡á	    9.3	¡î
¡¡£Æ£°¡¼£²£¸	¹½Âβ¹ÅÙ¡¼£³	        ¡á	    8.9	¡î
¡¡£Æ£°¡¼£²£¹	¹½Âβ¹ÅÙ¡¼£´	        ¡á	    7.3	¡î
¡¡£Æ£±¡¼£±£¸	ÂÀÍÛÅÅÃӥѥͥ벹ÅÙ¡¼£±	¡á	   29.3	¡î
¡¡£Æ£±¡¼£±£¹	ÂÀÍÛÅÅÃӥѥͥ벹ÅÙ¡¼£²	¡á	   15.7	¡î
¡¡£Æ£±¡¼£²£´	ÂÀÍÛÅÅÃӥѥͥ벹ÅÙ¡¼£³	¡á	    8.9	¡î
¡¡£Æ£±¡¼£²£³	£Ê£Ô£Ä  £Ô£ò²¹ÅÙ	¡á	   12.0	¡î
¡¡
 ¡¡¡ö·×»»½èÍý¤Ï OFFICE 97 ¤ò»ÈÍÑ¡¥
¡¡ 
 ===================================================================================
  £´¡Ë£Æ£Ï¡Ý£²£°¡Ê¤Õ¤¸2¹æ¡Ë¤Î£Ã£×¥Æ¥ì¥á¥È¥ê¤Ï£¶·î£±5Æü¡Ê²Ð¡Ë£±£¸¡§£µ£¶¡Ê£Ê£Ó£Ô¡Ë¤Î
     ¥Ñ¥¹¤Ç¤Ï¥Æ¥ì¥á¥È¥ê¡¼¤¬Ã±°ì¥È¡¼¥ó¤ÎϢ³²»¤«¤éÓ¹¤ê¤òȼ¤Ã¤¿Ï¢Â³²»¡¢¤µ¤é¤Ë¤æ¤é¤®¤Î
     ¤¢¤ë¿®¹æ¤Ë¤Ê¤ê¡¢¤¤¤Þ¤Þ¤Ç¤è¤ê¼ã´³¿®¹æ¤¬¼å¤¯¤Ê¤Ã¤Æ¤¤¤Þ¤·¤¿¡¥

 -----------------------------    FO-20 µ°Æ»Í×ÁÇ   ----------------------------------
 
 ¢£ µ°Æ»Í×ÁÇ£± ¡§½Ðŵ¤Ï¡Ö¤Õ¤¸£³¹æ¡×¤ËƱ¤¸¡¥
  
  FO-20
¡¡1 20480U 90013C   99196.09372517  .00000016  00000-0  98819-4 0 01678
¡¡2 20480 099.0215 025.4998 0541214 101.3492 264.8891 12.83254410441913
 
 ¢£ µ°Æ»Í×ÁÇ£² ¡§½Ðŵ¤Ï¡Ö¤Õ¤¸£³¹æ¡×¤ËƱ¤¸¡¥
               
  Satellite: FO-20
¡¡Catalog number: 20480
¡¡Epoch time:      99196.09372517
¡¡Element set:    0167
¡¡Inclination:      099.0215 deg
¡¡RA of node:       025.4998 deg
¡¡Eccentricity:    0.0541214
¡¡Arg of perigee:   101.3492 deg
¡¡Mean anomaly:     264.8891 deg
¡¡Mean motion:   12.83254410 rev/day
¡¡Decay rate:        1.6e-07 rev/day^2
¡¡Epoch rev:           44191
¡¡Checksum:              303
¡¡
   ==================================================================================

 £µ¡Ë£Ê£Á£Ò£Ì ¤Î¥Û¡¼¥à¥Ú¡¼¥¸¤Ë±¿ÍÑͽÄ꤬µ­ºÜ¤µ¤ì¤Æ¤¤¤Þ¤·¤¿¤Î¤Ç¤´¾Ò²ð¤·¤Þ¤¹¡¥
       ¡Ê http://www.jarl.or.jp/Japanese/3_Fuji/uy.htm ¡Ë

        ¢£ ¤Õ¤¸£³¹æ¡¿£Æ£Ï¡Ý£²£¹ ¢£  
  
 ¡¡¡¡¡ö¡ö¡ö¡¡±¿ÍÑͽÄê¤Ë¤Ä¤¤¤Æ¡¡¡ö¡ö¡ö
¡¡¡¡¡¡¡¡
¡¡¡¡ £··î£²£±Æü¡¡¡Á¡¡£··î£²£¶Æü¡¡¡¡¡¡¡¡ ¥Ç¥¸¥¿¥ë·Ï£±£²£°£°£â£ð£ó¥á¡¼¥ë¥Ü¥Ã¥¯¥¹±¿ÍÑ
¡¡¡¡ £··î£²£¶Æü¡¡¡Á¡¡£¸·î£°£¹Æü¡¡¡¡¡¡¡¡ ¥¢¥Ê¥í¥°·Ï±¿ÍÑ
¡¡¡¡ 
¡¡¤Ê¤ª¡¤±¿ÍÑͽÄê¤ÏÅÔ¹ç¤Ë¤è¤êÊѹ¹¤¹¤ë¤³¤È¤¬¤¢¤ê¤Þ¤¹¤Î¤Ç¤´Î»¾µ´ê¤¤¤Þ¤¹.

¡¡¾È²ñÀè¡¡¡§¡¡lab@jarl.or.jp

¡¡ºÇ¿·¤Î¾ðÊó¤Ï¥Æ¥ì¥Û¥ó¥µ¡¼¥Ó¥¹¡Ê¡§£°£³¡Ý£³£¹£´£²¡Ý£±£°£°£°¡Ë¤ò¤ªÊ¹¤­¤¯¤À¤µ¤¤¡£
¡¡¡¡¡¡
¡¡¡¡°Ê¸å¤Î±¿ÍѤËÉÕ¤­¤Þ¤·¤Æ¤Ï£¸·î£±£°Æü¡Ê²Ð¡Ë¤Ë¤ªÃΤ餻¤¤¤¿¤·¤Þ¤¹¡£

        ¢£ ¤Õ¤¸£²¹æ¡¿£Æ£Ï¡Ý£²£° ¢£  ¡¡   
            ¡Ö¤Õ¤¸£²¹æ¡×¡¡¸½¶·                                                                                               
   JAS-1b/FO-20¡Ê¤Õ¤¸£²¹æ¡Ë¤ÎÉÔ¶ñ¹çȯÀ¸¤Ë¤Ä¤¤¤Æ
    JAS-1b¡Ê¤Õ¤¸£²¹æ¡Ë¤Î£Ã£×¥Æ¥ì¥á¥È¥ê¿®¹æ¤Ë¡¤£±£¹£¹£·Ç¯£±£°·î£±£²Æü£±£²»þ
 ¡Ê£Ê£Ó£Ô¡Ë¤ÎÆüËܾå¶õÄ̲á»þ¡¤£³·å¤Î¿ô»ú¤¬·«¤êÊÖ¤µ¤ì¤ë¤Ï¤º¤¬£³¸Ä¤ÎĹ²»¤Î
  ·«¤êÊÖ¤·¤È¤Ê¤Ã¤Æ¤¤¤ë¤È¤¤¤¦°Û¾ï¤¬È¯¸«¤µ¤ì¤Þ¤·¤¿¡£¤³¤ÎÉÔ¶ñ¹ç¤Ï¼¡¤ÎÄ̲á»þ
  ¤«¤é¤Ï²óÉü¤·¤Æ¤¤¤Þ¤·¤¿¤¬£±£³Æü£±£µ»þ£²£°Ê¬¤ÎÄ̲á»þ¤ËºÆ¤Ó´Ñ¬¤µ¤ì¤Þ¤·¤¿¡£
  ±ÒÀ±¤Î¥¢¥Ê¥í¥°·ÏÃæ·Ñ¥â¡¼¥ÉÆ°ºî¤Ï°Û¾ï¤¬Ìµ¤¯¡¤Àµ¾ï»þ¤Î¥Æ¥ì¥á¥È¥êÆâÍƤ«¤é¤Ï
  ±ÒÀ±¤ÎÆ°ºî¤Ë°Û¾ï¤Ïǧ¤á¤é¤ì¤Þ¤»¤ó¡£½¾¤Ã¤Æ¡¤Ä¾¤Á¤Ë±ÒÀ±¤Î¥ß¥Ã¥·¥ç¥ó¤Ë±Æ¶Á¤¹
  ¤ë¤³¤È¤Ï̵¤¤¤ÈͽÁÛ¤µ¤ì¤Þ¤¹¤Î¤Ç¡¤ÅöÌ̤ϥ¢¥Ê¥í¥°·ÏÃæ·Ñ¥â¡¼¥É¤ò·Ñ³¤·¤Þ¤¹¡£
  ±ÒÀ±¤Ï´û¤ËÂǤÁ¾å¤²¤Æ¤«¤é£·Ç¯£¸¥ö·î¤ò·Ð¤Æ¤ª¤ê¤Þ¤¹¤Î¤Ç¡¤º£¸å¤Ï´Æ»ë¤ò¶¯²½¤¹
  ¤ëͽÄê¤Ç¤¹¡£¥¢¥Þ¥Á¥å¥¢³Æ°Ì¤Î¥ì¥Ý¡¼¥È¤ò¤ªÂÔ¤Á¤·¤Þ¤¹¡¥   
  
  °Ê¾å  http://www.jarl.or.jp/Japanese/3_Fuji/fuji.htm
                                           
   =============   JAS-2 ¡Ê¤Õ¤¸£³¹æ¡Ë¤È¸½ºß¤Þ¤Ç¤Î¾ðÊó   ===========
  
  £Á¡¥ÅÅÏäˤè¤ë¤Õ¤¸£³¹æ¤Î±¿ÍѾðÊó
      ¼ÒÃÄË¡¿ÍÆüËÜ¥¢¥Þ¥Á¥å¥¢Ï¢ÌÁ¤Ë¤è¤ë¥µ¡¼¥Ó¥¹
           £Ô£Å£Ì ¡¥   £°£³¡Ý £³£¹£´£² ¡Ý £±£°£°£°
  £Â¡¥¥¢¥Þ¥Á¥å¥¢ÌµÀþ£Æ£Á£Ø¥µ¡¼¥Ó¥¹
      £Ê£Á£Ò£Ì¤Ë¤è¤ë¤Õ¤¸£³¹æ¤Îµ°Æ»¾ðÊó¡Ê¥ª¡¼¥Ó¥Ã¥È¥«¥ì¥ó¥À¡¼¡Ë
         £Æ£Á£Ø £Î£ï¡¥  £°£³¡Ý £³£²£³£³ ¡Ý£°£°£µ£µ
  £Ã¡¥£×£×£×¥Ö¥é¥¦¥¶¤Ç¾ðÊó¤ò´Êñ¤Ë¸«¤ì¤ë¿Í¤Î¤¿¤á¤Ë£Ê£Á£Ó¡Ý£²
     ¤Õ¤¸£³¹æ¤Î±ÒÀ±¤È¤·¤Æ¤Î±¿ÍѤµ¤ì¤ë¤Þ¤Ç¤Î̾Á°¡Ë¤Î³µÍס¢ÂǤÁ¾å¤²
     ¤Þ¤Ç¤Î¾õ¶·¡¢±¿ÍÑÃæ¤Ë¤ª¤±¤ë¾õ¶·¤òÀâÌÀ¤·¤¿¥Û¡¼¥à¥Ú¡¼¥¸¤ò¾Ò²ð¤·
     ¤Æ¤ª¤­¤Þ¤¹¡¥
    ­¡ ¼ÒÃÄË¡¿ÍÆüËÜ¥¢¥Þ¥Á¥å¥¢ÌµÀþÏ¢ÌÁ¡Ê£Ê£Á£Ò£Ì¡Ë¤Î¥Û¡¼¥à¥Ú¡¼¥¸

          http://www.jarl.or.jp/Japanese/3_Fuji
 
    ­¢ ±§Ã賫ȯ»ö¶ÈÃġʣΣÁ£Ó£Ä£Á¡Ë¥Û¡¼¥à¥Ú¡¼¥¸ 
          http://www.nasda.go.jp/
         ÂǾ夲±ÒÀ±¡¡¡§Ãϵå´Ñ¬¥×¥é¥Ã¥È¥Õ¥©¡¼¥àµ»½Ñ±ÒÀ±¡ÊADEOS¡Ë 
                       ¥¢¥Þ¥Á¥å¥¢±ÒÀ±£³¹æ(JAS-2)
          http://yyy.tksc.nasda.go.jp/Home/Press/Press-j/jas-2_j.html        

  £Ä¡¥£Ê£Á£Í£Ó£Á£Ô¤Ë¤è¤ëµ°Æ»¾ðÊó¤Î³èÍÑ
        JAMSAT¤Î¥Û¡¼¥à¥Ú¡¼¥¸¤Þ¤¿¤Ïjamsat¡Ýkeps¤Îµ°Æ»Í×ÁǤè¤ê
      ±ÒÀ±¤Îµ°Æ»¾ðÊó¤òÆÀ¤ë¡¥
     £Ê£Á£Í£Ó£Á£Ô¥Û¡¼¥à¥Ú¡¼¥¸
               £Õ£Ò£Ì    http://www.jamsat.or.jp
       ¾åµ­¥Û¡¼¥à¥Ú¡¼¥¸¤Ç¤Ï³ÆÃϤǹԤï¤ì¤ë¥¢¥Þ¥Á¥å¥¢ÄÌ¿®±ÒÀ±¤Ë´Ø¤¹¤ë
      ¥ß¥å¡¼¥Æ¥£¥ó¥°¤Î¤ªÃΤ餻¤äÀ¤³¦¤Î¥¢¥Þ¥Á¥å¥¢±ÒÀ±¤Ë´Ø¤¹¤ë¾ðÊó¤¬
      ËþºÜ¤µ¤ì¤Æ¤¤¤Þ¤¹¡¥
   
 =========================================================================
       £Ê£Á£Í£Ó£Á£Ô¤Î¥á¥ó¥Ð¡¼¤Î¤´¶¨ÎϤˤè¤ê£Ê£È£¶£Í£Í£Å¡Ê¹â»³ ½¨Â¤¡Ë¤¬
    ¼¹É®¡¦ÊÔ½¸¤òôÅö¤·¤Æ¤ª¤ê¤Þ¤¹¡¥¤´»ØŦ¤Î°Õ¸«¡¢µ¿Ìä¤ä¤³¤Î¤è¤¦¤Ë¤·¤¿¤é
    ¤È¤¤¤¦¥¢¥¤¥Ç¥¢¤¬¤¢¤ê¤Þ¤·¤¿¤é¾®¤µ¤Ê¤³¤È¤Ç¤â¤«¤Þ¤¤¤Þ¤»¤ó¤Î¤Çµ¤·Ú¤Ë²¼
    µ­¥¢¥É¥ì¥¹¤Þ¤Ç¤´Ï¢Íí¤¯¤À¤µ¤¤¡¥£ê£á£í£ó£á£ô¡Ý£î£å£÷£ó¤«¤é£ê£á£ó£²
    £é£î£æ£ï¤Ø¤ÎžºÜ¤ò£Ê£È£´£Ð£È£×¶Éºä°æ¤µ¤ó¤ËôÅö¤·¤Æ夤¤Æ¤ª¤ê¤Þ¤¹¡¥
                    E-mail : jh6mme@jamsat.or.jp : jh4phw@jamsat.or.jp
 ===============================   £Å£Î£Ä  ===============================